GFSSGP_925_thetae_033.txt.gz
Theta_e
310 310 314 319 313 313 317 319 335 340 341 338 337 344 347 347 351 349 342 336 331 334 339 340 338 333 328 330 331 329 321 317 316 317 315 314 315 315 315 317 316 318 322 321 314 310 311 315 320
311 318 318 315 312 314 316 338 342 340 339 336 336 338 344 349 345 343 337 334 327 327 336 338 334 328 330 332 330 323 318 314 314 314 313 314 316 318 317 316 317 320 322 320 316 312 311 312 314
312 319 312 307 309 314 317 340 337 338 336 334 334 331 335 346 344 343 338 335 330 335 336 333 329 330 332 331 325 320 315 313 312 312 311 321 320 318 317 318 319 322 324 320 313 313 312 312 313
316 312 308 311 313 316 318 334 336 334 334 334 331 330 329 332 341 342 337 336 335 334 330 330 331 332 332 327 321 317 314 313 312 311 315 322 319 317 316 315 315 315 313 313 313 312 314 315 315
318 310 308 312 315 318 324 331 331 333 333 336 334 330 332 335 342 341 337 336 337 334 332 333 333 333 330 324 318 315 313 312 310 312 317 315 315 314 314 314 314 314 314 314 313 313 316 316 316
312 309 311 312 315 318 335 332 333 331 332 335 334 333 333 339 342 340 337 338 336 334 333 333 333 332 331 322 318 315 312 310 309 316 315 314 314 314 314 314 315 314 314 314 313 315 317 317 316
313 312 312 312 314 317 335 333 335 335 335 333 331 337 334 335 339 338 337 335 333 332 333 333 331 332 327 322 318 314 311 309 312 317 314 314 314 314 314 314 315 315 315 314 314 314 317 317 317
311 310 312 313 315 332 332 332 331 332 332 328 328 334 336 335 334 335 333 332 331 332 330 329 326 331 325 320 316 314 311 311 317 316 316 315 315 316 317 315 314 314 315 315 314 315 316 319 318
313 310 311 313 327 333 328 329 332 330 332 328 327 333 336 332 330 330 331 330 328 329 328 328 330 329 323 319 318 313 311 319 318 318 320 321 323 325 320 314 314 314 315 316 318 319 319 319 318
312 310 313 320 327 329 329 327 330 333 332 328 335 337 333 331 330 329 329 329 329 324 323 328 328 327 322 318 315 313 319 320 321 327 327 327 327 327 323 317 316 321 319 321 321 320 319 318 317
313 313 314 325 326 326 326 327 328 331 330 328 333 334 331 329 328 328 326 327 327 324 321 327 329 324 318 316 317 319 323 323 324 328 330 330 328 326 324 325 321 321 321 322 321 320 319 317 315
314 314 316 327 326 327 328 326 322 325 327 327 330 329 335 329 329 331 327 327 327 327 328 329 331 325 322 317 324 328 327 328 329 331 330 328 329 326 325 324 324 320 320 320 319 318 318 317 314
315 316 316 325 326 327 326 326 324 326 327 324 327 331 335 334 329 331 330 330 330 329 330 332 330 325 322 323 325 327 330 330 329 330 330 328 328 326 325 322 321 320 320 320 318 316 313 312 312
316 315 316 318 327 326 326 327 326 326 327 328 330 330 331 335 335 334 333 333 334 333 332 329 329 324 325 327 329 329 328 329 329 325 321 322 325 321 323 322 320 319 318 316 314 312 311 312 311
319 317 317 317 322 326 326 326 325 325 326 328 329 334 332 335 336 335 334 333 334 332 329 328 325 325 329 329 328 328 328 327 324 319 320 322 323 322 321 319 319 318 314 313 312 312 312 312 311
319 317 317 318 323 324 322 325 323 325 326 337 333 330 326 326 333 333 332 330 329 329 327 326 325 329 329 328 327 324 321 319 320 321 321 322 321 320 319 318 317 313 312 312 312 312 311 310 308
318 317 320 319 322 325 322 322 321 326 330 333 326 323 322 322 326 328 328 328 328 327 325 324 326 329 328 326 324 320 321 320 320 320 320 320 318 317 316 315 312 312 312 311 310 309 307 306 304
320 319 319 320 318 323 322 320 318 323 326 326 324 323 323 321 321 327 328 327 327 326 325 328 330 329 327 324 320 321 321 320 320 318 316 316 315 315 314 312 312 312 311 309 307 304 304 303 303
321 318 318 317 316 322 322 318 317 317 324 325 324 326 325 323 322 325 325 328 328 326 327 331 330 327 322 321 323 323 320 319 317 316 316 315 314 313 313 311 309 308 307 304 304 303 302 303 302
322 320 319 318 318 318 318 318 316 317 320 325 326 327 326 325 325 326 326 330 329 329 330 331 330 328 323 323 325 324 320 318 317 316 315 313 312 312 311 311 309 306 304 304 304 303 303 302 301
321 323 320 318 317 316 315 315 319 319 320 324 327 327 327 326 328 328 331 332 331 329 330 330 330 328 327 324 326 323 320 318 316 315 313 312 311 310 308 305 305 305 305 304 303 303 302 301 301
321 322 323 322 318 317 320 323 325 323 324 322 323 324 327 329 330 329 331 332 331 330 330 330 328 327 326 326 327 323 319 315 315 314 313 312 311 308 306 306 305 305 303 301 300 301 301 301 300
322 321 321 322 323 324 322 320 320 324 322 324 323 322 322 330 330 329 330 332 332 331 330 329 329 328 327 327 325 321 317 316 316 314 312 310 308 307 305 304 302 301 299 298 298 298 299 302 300
322 321 323 323 322 325 322 322 325 325 323 325 324 325 326 329 328 329 330 330 331 331 330 330 329 329 328 327 324 320 316 312 311 308 307 307 304 302 301 300 299 298 297 297 297 298 299 300 300
322 321 324 324 326 327 325 325 322 323 322 325 326 324 324 327 327 330 328 328 330 330 329 330 330 328 322 319 319 316 314 311 308 307 306 304 301 300 299 299 298 297 297 296 296 296 297 299 299
321 321 325 330 329 327 326 327 324 321 322 324 325 322 325 325 327 330 328 328 329 330 330 329 327 320 318 317 314 310 308 307 307 305 303 302 301 300 298 298 297 297 296 296 296 296 296 298 299
323 324 322 327 326 324 321 317 322 320 323 325 322 325 327 325 324 325 328 328 327 327 327 323 319 318 317 315 311 308 307 305 305 303 302 301 300 299 298 297 297 296 296 295 296 295 297 296 295
320 319 321 321 321 322 320 321 324 322 327 325 327 328 326 322 321 321 322 324 326 324 322 320 318 317 315 312 308 307 306 304 302 301 301 301 300 298 298 298 297 296 295 295 296 296 295 294 294
321 320 320 319 322 323 323 319 317 320 320 324 327 327 326 322 320 319 318 322 323 322 321 320 317 316 313 309 307 306 304 301 301 301 300 300 299 298 298 298 297 296 295 295 295 294 294 294 293
320 321 323 318 320 321 317 319 316 317 318 318 321 326 325 322 319 318 317 319 320 320 320 319 317 315 310 309 307 306 302 300 301 301 301 300 299 298 298 298 297 295 295 295 294 294 293 293 293

GFSSGP_925_thetae_036.txt.gz
Theta_e
312 310 313 317 312 309 314 315 318 338 340 337 338 345 347 347 350 344 336 336 344 342 341 338 337 331 328 331 329 321 316 312 312 312 312 313 315 316 316 318 318 318 320 314 312 314 315 314 318
312 316 316 311 309 311 312 317 339 338 337 338 337 342 345 350 344 339 338 339 342 342 340 338 334 328 329 331 324 320 324 320 312 313 314 317 317 314 313 314 315 316 316 313 312 312 313 316 317
312 318 314 311 305 310 312 337 335 336 332 332 332 327 337 347 341 338 336 340 342 341 339 336 329 328 331 327 323 317 318 315 314 317 322 322 319 314 313 313 313 314 314 313 314 315 316 316 316
315 310 306 308 309 310 315 326 334 334 333 333 329 329 331 333 342 341 335 336 338 339 337 331 328 331 330 322 316 312 315 314 314 318 323 325 323 313 312 312 313 313 313 315 316 316 316 316 317
316 305 308 308 310 314 324 321 332 334 334 335 331 332 332 339 338 336 331 332 336 338 332 330 331 331 324 319 315 313 312 312 315 316 317 315 314 313 312 313 313 313 313 316 317 316 316 317 317
311 306 309 310 312 314 334 332 332 333 332 333 331 334 332 338 337 336 336 336 336 334 332 332 332 327 320 318 316 311 310 311 316 314 314 313 313 313 313 313 313 313 313 314 317 317 317 317 317
314 311 311 313 313 318 334 332 333 335 333 330 329 337 334 334 337 336 334 334 333 332 333 332 329 325 322 316 312 310 309 313 315 313 313 312 313 313 313 313 314 314 313 313 314 318 318 317 317
310 308 311 311 312 320 332 332 331 333 333 327 330 335 336 333 333 333 332 331 331 327 325 325 327 326 322 317 314 310 310 316 313 313 313 313 313 313 313 313 314 314 314 315 316 318 318 318 317
309 311 310 311 317 330 328 332 331 330 332 328 333 335 333 331 332 331 331 330 329 328 325 322 321 324 321 320 315 310 315 316 315 315 315 317 319 316 314 314 314 315 317 319 318 319 319 317 316
311 310 313 311 324 330 327 328 331 330 331 333 333 331 330 330 330 329 328 328 327 327 325 321 321 327 324 320 314 313 317 316 318 320 321 325 325 320 315 315 316 317 320 319 319 319 318 316 315
313 313 313 317 325 325 326 325 329 331 331 329 334 332 330 329 329 329 328 326 324 324 325 326 329 326 321 317 313 318 318 323 324 325 326 326 326 326 320 317 319 319 322 321 321 319 316 314 313
313 312 313 325 325 325 326 325 328 328 327 331 332 330 328 328 327 326 329 324 322 323 325 325 329 325 319 315 313 320 320 322 325 328 330 329 327 326 325 324 321 322 321 319 317 316 314 312 312
312 314 319 325 324 326 328 327 324 326 326 329 330 329 329 328 327 326 328 325 323 322 325 328 328 324 318 316 317 322 323 326 330 330 328 329 326 324 322 322 320 319 317 316 314 312 312 311 311
316 317 322 323 323 324 327 325 324 325 324 328 333 331 329 329 330 328 327 327 326 326 325 329 328 326 320 320 323 326 329 330 330 329 328 327 326 324 322 320 319 318 317 315 313 312 311 311 311
318 317 325 325 324 325 324 324 325 325 326 330 332 333 331 329 330 329 328 328 328 327 327 330 331 326 323 324 325 329 330 330 324 320 323 322 324 321 320 318 317 316 313 312 311 311 311 311 309
318 315 317 324 322 323 320 326 325 324 329 331 331 332 333 332 331 330 330 329 329 330 331 331 330 325 325 325 328 328 327 328 320 319 320 320 321 321 319 318 315 313 312 312 312 311 310 308 305
315 316 317 320 321 322 321 321 322 324 330 333 332 328 332 334 333 332 331 333 332 331 330 328 327 327 329 329 327 326 324 319 319 320 321 321 320 318 318 314 312 312 311 310 309 307 305 304 303
320 318 318 319 319 322 321 319 318 325 330 336 326 320 326 333 333 332 332 332 332 330 328 325 328 329 327 325 322 320 320 319 320 320 320 319 316 315 313 312 312 311 311 309 306 303 302 302 302
321 321 320 315 316 323 322 318 317 325 328 328 321 321 325 331 330 330 329 329 329 328 326 325 328 327 326 324 321 320 320 320 319 316 315 315 315 315 312 312 311 310 309 306 303 303 302 302 301
321 321 319 317 316 321 319 318 315 321 326 327 323 322 322 322 323 326 326 326 326 325 325 325 327 327 326 324 321 321 320 319 316 316 315 314 313 313 311 311 310 307 304 304 303 302 302 301 301
320 321 320 321 317 314 314 316 319 317 322 325 324 324 323 322 323 322 326 326 325 326 326 325 327 327 325 322 322 323 320 317 316 316 314 312 312 311 310 308 306 305 305 304 303 302 302 301 300
321 320 319 321 316 314 316 320 321 322 320 325 325 326 324 323 323 326 327 326 326 328 327 328 328 327 323 322 326 323 319 317 315 314 313 312 311 310 307 305 305 305 303 301 299 299 299 300 300
322 320 320 321 320 320 320 317 318 322 320 321 321 323 325 324 325 329 328 328 327 328 329 329 329 329 327 323 325 323 319 318 316 314 313 312 310 308 306 305 304 302 299 297 297 297 297 299 300
321 321 321 322 322 322 322 319 318 322 321 319 320 320 323 325 325 328 330 329 328 328 328 329 329 328 327 326 325 325 321 318 315 313 312 311 309 306 304 301 300 299 297 296 296 296 296 298 299
321 320 321 322 322 322 324 321 320 319 320 320 320 321 321 328 326 329 329 330 329 328 328 329 328 328 327 326 327 326 322 318 315 313 311 309 305 300 299 299 299 297 296 296 295 295 296 296 298
321 319 321 324 324 322 324 326 323 319 318 320 321 319 325 326 328 328 329 329 329 328 329 329 328 328 328 328 327 325 319 315 314 310 306 303 301 300 298 298 297 297 296 295 295 295 295 296 297
321 321 320 324 323 321 322 318 318 320 320 322 322 321 324 324 327 328 327 327 328 328 328 329 329 328 324 319 319 316 311 309 307 306 303 301 299 299 298 298 297 297 296 295 295 295 296 295 294
319 319 321 320 323 326 319 319 320 325 325 324 323 322 323 323 327 326 326 326 328 328 328 329 328 321 315 313 311 309 307 306 306 303 301 301 299 299 298 298 298 297 296 296 295 295 296 294 293
319 318 318 318 318 320 321 318 313 320 325 323 322 322 324 323 325 326 326 326 327 327 327 326 323 318 314 313 310 308 306 304 302 301 301 300 299 299 300 299 298 297 296 295 295 295 294 294 293
317 319 319 317 317 319 315 317 315 315 318 323 324 325 323 323 323 324 324 324 323 323 322 319 318 317 316 313 309 307 305 305 301 301 300 300 301 301 299 298 297 297 296 295 295 295 294 293 293

GFSSGP_925_thetae_039.txt.gz
Theta_e
312 311 312 315 311 308 312 314 314 326 339 337 339 343 345 346 345 342 337 339 341 344 340 337 333 327 327 329 323 315 315 319 317 312 313 319 325 320 318 315 318 322 324 324 323 323 320 321 319
312 313 316 306 308 310 311 312 324 328 339 341 340 342 344 349 342 339 337 340 341 343 339 336 333 329 330 327 318 315 324 325 317 319 322 319 322 315 312 313 315 319 322 323 322 317 320 325 324
312 317 314 308 304 310 311 318 335 334 332 332 330 330 338 347 338 337 337 340 342 341 339 336 330 328 329 321 316 320 317 315 313 319 322 320 322 313 313 313 315 317 319 322 322 316 316 318 322
314 309 304 306 308 308 312 312 327 333 332 332 330 331 331 338 338 338 338 338 341 340 338 333 329 330 325 318 315 313 313 313 317 320 318 317 321 313 313 313 315 315 316 316 317 316 315 315 318
314 304 308 307 309 311 330 331 325 333 334 333 330 332 334 337 336 337 338 337 338 339 337 331 331 329 322 315 313 312 314 315 321 322 317 316 316 313 313 313 316 317 316 316 316 316 316 315 314
308 304 308 309 311 312 332 331 332 333 332 332 332 334 339 337 335 334 336 338 338 338 334 330 331 325 317 314 314 311 312 318 321 318 314 314 313 313 313 312 314 317 317 317 317 317 316 316 316
311 309 311 310 312 312 334 331 333 333 331 331 329 335 337 337 333 334 334 330 327 331 333 332 330 322 316 315 311 314 317 316 316 314 313 313 313 313 313 313 313 313 315 319 319 318 317 317 317
309 308 311 310 310 312 331 331 330 332 332 328 330 336 338 335 331 329 329 327 326 328 326 323 320 319 317 316 318 313 315 315 314 313 313 313 313 314 314 314 314 314 316 317 319 318 318 317 315
307 311 310 312 312 323 329 330 330 329 331 333 334 333 333 331 331 330 329 326 324 323 323 323 321 319 319 316 311 311 316 314 313 314 313 313 314 314 314 314 315 316 317 318 319 318 317 315 314
310 311 313 311 319 328 328 328 329 330 335 334 336 333 332 331 330 329 328 327 325 323 322 324 322 322 321 318 312 315 318 315 314 314 315 317 316 315 315 315 316 317 318 318 319 318 316 314 313
310 313 312 314 324 325 325 324 328 328 331 333 336 333 331 330 329 329 329 328 326 324 324 324 322 323 320 319 313 314 318 316 316 318 322 323 321 317 316 317 318 320 320 320 319 316 314 312 311
314 312 312 322 324 324 325 324 325 328 326 331 331 330 329 329 329 328 327 326 326 324 324 320 323 326 323 319 313 316 319 318 320 322 324 326 326 323 319 319 321 321 321 318 315 314 312 311 311
311 313 319 323 323 324 325 325 323 326 331 330 329 329 329 327 327 328 326 324 325 325 322 321 327 328 324 320 314 318 319 322 326 329 329 328 326 326 325 321 322 320 317 316 313 312 311 311 310
315 315 322 322 323 323 324 324 325 326 330 330 329 329 327 326 326 327 327 323 323 324 324 326 329 327 323 320 316 320 321 328 330 329 329 327 325 323 324 320 318 316 315 313 312 311 311 310 309
317 319 324 324 323 324 322 325 324 326 331 331 330 329 327 326 327 326 327 324 322 323 324 326 328 328 323 318 317 321 324 330 329 328 327 326 324 322 320 318 316 314 313 312 311 311 310 310 307
316 314 321 324 324 322 320 325 324 325 329 333 332 330 328 329 328 326 327 325 323 324 325 327 328 326 322 319 320 325 329 329 327 327 326 325 323 321 319 317 314 312 312 311 311 310 308 305 302
314 315 316 320 322 321 320 324 324 325 329 331 331 332 330 328 329 328 326 326 325 326 326 328 329 328 325 322 324 328 329 326 319 320 320 321 322 319 317 315 313 312 311 310 309 307 304 302 302
319 319 316 318 320 320 321 319 323 325 330 332 330 330 332 331 330 329 329 327 326 327 327 329 330 329 325 325 327 326 326 323 319 319 321 321 319 317 315 313 311 311 310 310 307 303 302 302 302
320 320 320 316 316 322 321 318 325 325 329 332 329 325 330 333 331 331 330 330 329 329 330 330 329 327 326 326 324 324 322 320 319 320 320 319 317 314 312 312 311 311 310 306 303 303 301 301 300
320 320 319 318 318 319 318 319 316 325 331 331 329 322 326 331 331 331 331 331 331 330 330 328 327 326 327 327 325 323 320 319 319 318 317 315 315 313 312 311 310 309 305 304 303 302 301 301 300
319 320 320 320 318 314 316 317 316 317 325 327 326 321 323 330 330 330 330 328 329 327 328 327 326 327 327 326 322 320 319 319 316 315 314 313 314 313 312 311 308 304 304 304 302 301 301 300 300
320 318 319 319 319 313 315 316 318 316 322 324 326 322 322 327 327 327 327 327 327 327 327 326 326 327 326 325 322 321 320 317 316 316 315 313 312 311 309 307 304 305 304 302 299 298 298 298 299
320 320 320 320 319 319 318 316 315 319 318 323 324 323 322 322 324 324 326 326 325 325 326 326 325 325 326 325 322 322 321 318 317 316 314 312 310 309 307 305 305 303 299 297 296 296 296 297 299
320 320 318 319 320 320 321 318 317 319 320 318 322 323 323 321 321 322 325 325 325 325 326 326 325 325 325 325 322 324 321 319 316 314 312 310 308 307 305 304 301 299 297 296 295 295 295 296 298
319 319 320 321 321 321 321 321 319 317 316 318 318 320 322 322 322 326 325 326 325 326 326 326 326 326 326 325 322 324 322 320 318 315 312 310 308 304 301 299 298 298 301 296 295 295 295 295 296
320 318 319 322 322 320 322 324 321 319 317 316 315 318 317 323 324 328 327 327 326 326 326 326 327 327 327 326 326 325 324 320 317 316 313 310 307 302 299 299 299 301 297 296 295 295 295 295 295
321 321 318 321 320 320 319 319 315 317 320 320 319 323 323 323 325 327 328 327 327 326 326 326 327 328 327 327 326 325 325 324 317 314 312 310 304 300 299 299 299 298 297 297 297 295 295 295 295
320 318 320 318 322 325 319 318 317 320 321 322 321 322 323 323 325 325 326 327 327 326 326 327 328 328 328 327 327 326 325 320 314 313 308 304 300 299 302 299 299 299 298 298 296 295 295 295 294
318 317 316 316 315 318 319 319 311 318 319 322 320 318 321 323 325 326 325 326 327 328 329 329 328 328 328 326 324 320 316 313 310 307 305 302 302 303 300 299 300 299 298 296 295 295 295 294 294
318 318 316 316 317 317 315 316 313 313 314 320 320 319 320 322 325 325 325 325 325 326 327 327 327 327 327 317 314 312 309 308 308 306 304 303 301 299 299 301 299 298 296 296 295 295 294 294 294

GFSSGP_925_thetae_042.txt.gz
Theta_e
312 310 312 313 310 307 311 312 312 318 329 339 339 342 343 343 343 341 337 339 341 341 338 335 329 327 327 322 315 313 312 316 323 325 319 318 321 321 320 324 325 324 325 325 324 322 319 320 326
311 312 315 304 307 309 308 310 317 330 338 332 331 337 343 346 341 338 338 340 340 341 338 333 330 329 327 318 314 312 311 312 314 315 325 321 320 321 323 324 323 323 323 326 328 321 320 325 326
312 317 312 305 304 309 309 311 331 333 332 331 329 331 336 343 337 337 337 341 339 340 337 334 333 329 324 315 312 311 310 309 311 316 325 317 319 321 321 322 324 321 322 321 321 324 325 324 322
313 309 302 306 307 307 310 310 321 329 332 330 328 331 334 337 337 337 338 339 338 339 337 334 332 328 320 313 310 311 311 315 320 321 322 321 322 322 321 322 323 318 318 315 316 317 318 318 315
311 303 307 306 307 308 310 330 330 331 332 331 329 333 340 335 338 339 339 338 339 338 337 334 330 326 318 314 313 312 315 319 322 321 322 321 319 318 318 318 321 317 316 315 315 315 316 317 317
308 303 307 308 309 309 323 330 331 332 332 330 332 336 339 335 336 332 336 336 338 338 337 333 330 325 325 322 312 316 320 324 324 321 320 317 315 316 316 316 316 316 316 316 316 316 316 315 315
309 307 309 310 311 311 329 330 332 332 330 330 330 337 338 334 333 331 330 332 335 335 335 333 330 324 322 318 316 320 323 322 319 315 315 314 313 313 315 317 317 317 317 317 317 317 317 316 315
306 306 310 310 309 310 329 331 330 331 331 327 330 338 340 332 331 329 329 329 327 327 329 326 321 314 317 319 322 324 322 320 313 314 313 313 313 313 313 313 314 317 318 318 318 317 316 315 314
306 309 310 311 311 313 328 330 330 328 332 334 334 334 333 329 327 325 326 325 325 326 321 319 319 321 320 320 321 324 322 315 314 313 313 313 314 314 314 315 315 316 318 318 317 316 315 314 313
308 310 312 311 311 323 328 327 328 331 334 335 335 334 332 330 328 326 325 324 323 320 317 315 317 317 315 315 313 315 318 314 313 313 314 314 314 315 315 315 316 317 318 318 317 315 313 312 311
309 312 312 311 311 325 326 325 327 332 334 333 335 335 333 331 329 328 325 323 322 322 320 319 321 322 320 316 316 318 315 314 314 314 314 315 315 315 315 316 317 318 318 318 316 313 312 312 311
313 311 311 313 324 323 324 324 327 325 326 330 332 332 331 329 329 327 326 324 323 323 323 322 322 321 326 320 313 317 315 316 315 316 321 320 318 316 316 317 318 320 319 316 314 314 312 311 310
311 311 315 315 322 323 323 324 324 330 330 331 331 330 328 329 328 327 327 326 323 322 324 322 321 324 322 320 313 318 316 317 318 322 324 325 324 321 318 320 320 319 316 316 314 312 311 310 309
313 316 320 323 323 322 324 325 324 331 330 331 330 329 327 326 327 326 325 325 324 324 323 321 323 326 323 321 314 317 318 319 323 325 327 327 325 325 324 321 318 316 315 313 312 311 310 309 308
316 322 323 323 322 324 322 325 324 331 330 330 328 327 326 324 327 326 325 323 324 324 322 321 322 328 325 322 316 318 319 324 328 328 328 327 326 323 323 319 316 314 314 313 311 310 310 308 304
314 316 322 322 323 322 320 323 326 330 330 330 329 328 327 325 325 326 326 323 323 323 321 321 326 328 326 322 317 319 321 328 328 327 326 326 324 321 319 317 315 314 313 312 311 310 307 303 301
313 314 315 319 322 323 320 324 324 327 331 331 330 329 327 327 326 325 326 325 323 323 324 325 326 328 326 323 318 319 323 328 327 326 326 325 322 320 318 316 315 313 312 310 309 306 303 301 300
319 319 317 319 321 321 323 321 324 326 330 331 329 329 328 326 327 327 325 326 324 322 323 325 327 328 326 323 320 322 327 326 323 322 321 322 322 320 317 316 314 312 310 308 305 303 302 300 300
318 319 319 317 315 323 321 318 324 325 327 329 329 329 329 329 327 328 327 326 325 324 325 325 327 328 327 324 323 326 327 324 320 320 320 320 320 318 316 314 311 309 309 306 303 302 301 300 300
318 319 319 316 316 317 316 317 320 325 327 330 330 330 329 329 328 328 328 327 326 325 325 326 327 328 329 325 324 325 325 323 320 319 319 319 318 316 313 312 310 309 307 304 303 302 301 300 300
318 319 319 319 316 313 317 316 314 320 326 329 329 329 327 328 329 329 329 328 328 328 327 327 328 329 328 325 325 324 322 320 319 318 318 317 315 313 312 311 309 306 304 304 303 301 300 299 299
319 317 319 319 318 316 313 315 316 315 326 326 329 326 325 323 328 329 329 329 329 328 328 328 328 328 327 325 325 323 322 319 318 318 317 315 314 312 310 308 307 304 304 301 298 297 297 296 297
318 319 319 319 318 318 317 316 314 316 317 325 326 326 325 322 327 328 328 329 328 328 328 327 327 327 326 325 325 323 322 320 319 318 315 313 313 310 309 307 305 304 300 297 297 295 295 295 297
318 318 316 317 317 320 319 316 317 317 318 316 322 325 325 321 324 326 327 327 326 327 327 326 326 326 325 325 324 323 321 319 318 315 314 312 310 309 307 305 303 299 298 298 298 295 294 294 296
317 317 320 320 321 322 319 320 318 316 316 316 316 320 322 322 319 321 321 323 324 325 325 325 325 325 325 325 324 324 322 320 319 316 315 312 309 307 305 303 300 299 302 298 299 296 294 294 294
319 318 319 321 321 318 319 322 319 318 317 317 313 313 317 318 318 320 321 323 324 324 324 325 325 325 324 324 324 324 323 322 319 316 315 312 309 307 303 300 299 301 303 303 298 296 295 295 294
319 319 316 319 319 318 318 317 313 317 320 319 318 318 316 318 318 321 322 324 324 324 325 325 326 325 325 324 324 323 324 323 321 317 315 311 308 305 300 299 301 305 304 299 297 297 296 295 295
319 317 319 317 322 323 317 317 315 315 318 321 321 321 322 320 321 323 323 324 325 325 325 325 325 325 325 325 325 326 325 324 322 317 314 312 309 306 302 300 302 303 298 299 298 297 296 295 295
318 317 314 315 314 318 317 316 311 313 315 317 318 317 319 321 321 323 324 326 325 325 326 326 325 325 325 326 326 326 325 323 318 316 315 313 310 303 300 299 302 299 299 297 297 297 295 295 295
315 317 315 316 316 315 313 316 312 310 311 312 316 318 316 320 321 321 323 325 326 326 325 325 325 326 325 326 326 325 322 319 314 312 310 308 303 300 299 301 298 298 297 298 297 295 295 295 294